Home   Weather   Leknes   Past weeks
Flag for Norway

Past Weather in Leknes, Norway — Yesterday and Last 2 Weeks

Now
54 °F

Scattered clouds.


Feels Like: 49 °F
Forecast: 44 / 40 °F
Wind: 17 mph from Northeast

Location: Leknes

Current Time: May 24, 2019 at 3:23:28 pm

Latest Report: May 24, 2019 at 2:50 pm


Visibility: N/A

Pressure: 29.80 "Hg

Humidity: 54%

Dew Point: 37 °F

Location of LeknesLocation

Past Weather in Leknes — Graph

°F

Leknes Temperature Yesterday

Maximum temperature yesterday: 52 °F (at 9:50 am)
Minimum temperature yesterday: 43 °F (at 1:50 am)
Average temperature yesterday: 50 °F

High & Low Weather Summary for the Past Weeks

 TemperatureHumidityPressure
High63 °F (May 20, 7:50 am)100% (May 11, 8:50 pm)30.45 "Hg (May 11, 8:50 pm)
Low32 °F (May 14, 6:20 am)38% (May 10, 12:20 pm)29.74 "Hg (May 10, 8:50 am)
Average48 °F69%30.11 "Hg
* Reported May 9 2:50 pm — May 24 2:20 pm, Leknes. Weather by CustomWeather, © 2019

Note: Actual official high and low records may vary slightly from our data, if they occured in-between our weather recording intervals... More about our weather records

Advertising

Leknes Weather History for the Previous 24 Hours

Scroll right to see more
 ConditionsComfort  
Time TempWeatherWind HumidityBarometerVisibility
2:20 pm
Fri, May 24
54 °FScattered clouds.15 mph54%29.80 "HgN/A
1:50 pm54 °FScattered clouds.14 mph51%29.80 "HgN/A
1:20 pm52 °FScattered clouds.13 mph50%29.80 "HgN/A
12:50 pm52 °FScattered clouds.14 mph54%29.80 "HgN/A
12:20 pm54 °FScattered clouds.7 mph51%29.80 "HgN/A
11:50 am54 °FPassing clouds.9 mph47%29.80 "HgN/A
10:50 am52 °FPassing clouds.10 mph47%29.80 "HgN/A
10:20 am50 °FSunny.12 mph50%29.83 "Hg10 mi
9:50 am50 °FSunny.13 mph54%29.83 "Hg10 mi
9:20 am50 °FSunny.6 mph54%29.83 "Hg10 mi
8:20 am50 °FSunny.8 mph54%29.83 "Hg10 mi
7:50 am50 °FSunny.7 mph54%29.83 "Hg10 mi
7:20 am48 °FSunny.7 mph58%29.83 "Hg10 mi
6:50 am46 °FSunny.7 mph62%29.83 "Hg10 mi
5:50 am46 °FSunny.10 mph62%29.83 "Hg10 mi
4:50 am43 °FSunny.8 mph71%29.86 "Hg10 mi
10:50 pm
Thu, May 23
46 °FSunny.7 mph46%29.89 "Hg10 mi
9:50 pm50 °FPassing clouds.8 mph40%29.89 "HgN/A
9:20 pm50 °FSunny.9 mph43%29.89 "Hg10 mi
7:20 pm52 °FPassing clouds.14 mph41%29.89 "HgN/A
6:50 pm52 °FPassing clouds.14 mph41%29.89 "HgN/A
5:50 pm52 °FPassing clouds.13 mph41%29.92 "HgN/A
4:20 pm52 °FPassing clouds.15 mph41%29.92 "HgN/A
3:50 pm52 °FPassing clouds.16 mph41%29.92 "HgN/A
3:20 pm52 °FPassing clouds.13 mph41%29.95 "HgN/A
Weather by CustomWeather, © 2019

See weather overview